{"data":{"norad_id":58505,"intl_designator":"2023-190A","name":"CHUANGXIN 19 (CX-19)","alt_names":[],"object_type":"PAYLOAD","status":"ACTIVE","operator":null,"country":"PRC","launch_date":"2023-12-05","launch_site_code":"SCSLA","launch_vehicle":null,"mission":null,"orbit_class":"UNKNOWN","rcs_meters":null,"size_class":null,"mass_kg":null,"dimensions":null,"purposes":[],"wikipedia_slug":null,"has_3d_model":false,"image_url":null,"decayed_at":null,"tle_current":{"epoch":"2026-09-21T23:32:55.589280Z","epoch_age_seconds":116910,"freshness":"FRESH","line1":"1 58505U 23190A   26264.98119895  .00000040  00000+0  46204-4 0  9991","line2":"2 58505  86.4996 299.0923 0001945 107.9815 252.1540 13.39558487137655","mean_motion":13.39558487,"eccentricity":0.0001945,"inclination_deg":86.4996,"raan_deg":299.0923,"arg_perigee_deg":107.9815,"mean_anomaly_deg":252.154,"bstar":4.6204e-5,"rev_number":13765,"period_min":107.49810582925,"perigee_km":1109.4677188611,"apogee_km":1112.3809637229,"semimajor_km":7489.061341292,"source":"CELESTRAK","updated_at":"2026-09-22T09:00:26.680893Z"}}}